Weather History for La Grange, GA

Change the Weather History Date:

Friday, January 31, 2014

  Actual Average Record
Temperature  
Mean Temperature 38 °F -  
Max Temperature 59 °F 58 °F 77 °F (1950)
Min Temperature 16 °F 32 °F 6 °F (1966)
Degree Days  
Heating Degree Days 28    
Moisture  
Dew Point 19 °F    
Average Humidity 62    
Maximum Humidity 93    
Minimum Humidity 17    
Precipitation  
Precipitation 0.00 in - - ()
Sea Level Pressure  
Sea Level Pressure 30.18 in    
Wind  
Wind Speed 1 mph (NW)    
Max Wind Speed 5 mph    
Max Gust Speed -    
Visibility 10 miles    
Events      
Averages and records for this station are not official NWS values.
T = Trace of Precipitation, MM = Missing Value Source: NWS Daily Summary

Daily Weather History Graph

Daily Weather History Graph

Search for Another Location

Airport:

Trip Planner

Search our weather history database for the weather conditions in past years. The results will help you decide how hot, cold, wet, or windy it might be!

Date:

Astronomy

Jan. 31, 2014 Rise Set
Actual Time 7:36 AM EST 6:11 PM EST
Civil Twilight 7:10 AM EST 6:37 PM EST
Nautical Twilight 6:40 AM EST 7:07 PM EST
Astronomical Twilight 6:11 AM EST 7:36 PM EST
Moon 7:50 AM EST 7:28 PM EST
Length of Visible Light 11h 27m
Length of Day
10h 35m
New Moon, 1% of the Moon is Illuminated
Jan 31
New Moon
Feb 6
First Quarter
Feb 14
Full
Feb 22
Last Quarter
Mar 1
New

Hourly Weather History & Observations

Time (EST) Temp. Windchill Dew Point Humidity Pressure Visibility Wind Dir Wind Speed Gust Speed Precip Events Conditions
12:15 AM 21.7 °F - 18.0 °F 85% 30.19 in 10.0 mi Calm Calm - N/A   Clear
12:35 AM 23.0 °F 18.4 °F 18.5 °F 83% 30.20 in 10.0 mi NW 3.5 mph - N/A   Clear
12:55 AM 21.4 °F - 17.6 °F 85% 30.20 in 10.0 mi Calm Calm - N/A   Clear
1:15 AM 21.4 °F - 18.3 °F 88% 30.20 in 10.0 mi Calm Calm - N/A   Clear
1:35 AM 19.9 °F - 17.2 °F 89% 30.19 in 10.0 mi Calm Calm - N/A   Clear
1:55 AM 19.2 °F - 16.3 °F 89% 30.20 in 10.0 mi Calm Calm - N/A   Clear
2:15 AM 19.8 °F - 16.9 °F 89% 30.19 in 10.0 mi Calm Calm - N/A   Clear
2:35 AM 18.7 °F 13.5 °F 15.4 °F 87% 30.20 in 10.0 mi NW 3.5 mph - N/A   Clear
2:55 AM 18.9 °F - 16.2 °F 89% 30.19 in 10.0 mi Calm Calm - N/A   Clear
3:15 AM 19.4 °F - 16.2 °F 87% 30.19 in 10.0 mi Calm Calm - N/A   Clear
3:35 AM 19.9 °F - 16.9 °F 88% 30.19 in 10.0 mi Calm Calm - N/A   Clear
3:55 AM 18.5 °F - 16.2 °F 91% 30.19 in 10.0 mi Calm Calm - N/A   Clear
4:15 AM 18.0 °F - 16.2 °F 93% 30.18 in 10.0 mi Calm Calm - N/A   Clear
4:35 AM 18.5 °F - 16.0 °F 90% 30.19 in 10.0 mi Calm Calm - N/A   Clear
4:55 AM 18.9 °F - 15.8 °F 88% 30.17 in 10.0 mi Calm Calm - N/A   Clear
5:15 AM 18.5 °F - 16.2 °F 91% 30.17 in 10.0 mi Calm Calm - N/A   Clear
5:35 AM 17.6 °F - 15.4 °F 91% 30.17 in 10.0 mi Calm Calm - N/A   Clear
5:55 AM 18.0 °F 12.7 °F 14.9 °F 88% 30.18 in 10.0 mi NW 3.5 mph - N/A   Clear
6:15 AM 18.1 °F - 15.8 °F 91% 30.18 in 10.0 mi Calm Calm - N/A   Clear
6:35 AM 18.3 °F - 15.8 °F 90% 30.19 in 10.0 mi Calm Calm - N/A   Clear
6:55 AM 17.8 °F - 14.9 °F 88% 30.21 in 10.0 mi Calm Calm - N/A   Clear
7:15 AM 18.1 °F - 16.0 °F 91% 30.22 in 10.0 mi Calm Calm - N/A   Clear
7:35 AM 16.2 °F 9.0 °F 14.4 °F 93% 30.22 in 10.0 mi SE 4.6 mph - N/A   Clear
7:55 AM 19.2 °F - 17.6 °F 93% 30.22 in 10.0 mi Calm Calm - N/A   Clear
8:15 AM 21.0 °F - 18.7 °F 91% 30.23 in 10.0 mi Calm Calm - N/A   Clear
8:35 AM 23.9 °F - 20.7 °F 87% 30.23 in 10.0 mi Calm Calm - N/A   Clear
8:55 AM 25.9 °F - 21.7 °F 84% 30.24 in 10.0 mi Calm Calm - N/A   Clear
9:15 AM 28.9 °F - 23.2 °F 79% 30.22 in 10.0 mi Calm Calm - N/A   Clear
9:35 AM 31.6 °F - 22.5 °F 69% 30.24 in 10.0 mi Calm Calm - N/A   Clear
9:55 AM 34.0 °F - 23.0 °F 64% 30.24 in 10.0 mi Calm Calm - N/A   Clear
10:15 AM 36.1 °F - 22.1 °F 57% 30.25 in 10.0 mi Calm Calm - N/A   Clear
10:35 AM 38.7 °F - 22.3 °F 52% 30.25 in 10.0 mi Calm Calm - N/A   Clear
10:55 AM 39.9 °F - 21.9 °F 49% 30.25 in 10.0 mi Calm Calm - N/A   Clear
11:15 AM 41.2 °F - 21.9 °F 46% 30.23 in 10.0 mi Calm Calm - N/A   Clear
11:35 AM 44.6 °F - 22.6 °F 42% 30.22 in 10.0 mi Calm Calm - N/A   Clear
11:55 AM 45.7 °F 43.4 °F 22.5 °F 40% 30.21 in 10.0 mi WNW 4.6 mph - N/A   Clear
12:15 PM 47.5 °F - 21.0 °F 35% 30.20 in 10.0 mi NE 3.5 mph - N/A   Clear
12:35 PM 49.3 °F - 19.8 °F 31% 30.20 in 10.0 mi NW 3.5 mph - N/A   Clear
12:55 PM 50.7 °F - 20.7 °F 31% 30.19 in 10.0 mi Calm Calm - N/A   Clear
1:15 PM 51.6 °F - 20.7 °F 30% 30.19 in 10.0 mi WNW 3.5 mph - N/A   Clear
1:35 PM 52.0 °F - 19.6 °F 28% 30.17 in 10.0 mi North 3.5 mph - N/A   Clear
1:55 PM 53.1 °F - 18.3 °F 26% 30.16 in 10.0 mi North 4.6 mph - N/A   Clear
2:15 PM 53.8 °F - 15.4 °F 22% 30.15 in 10.0 mi West 4.6 mph - N/A   Clear
2:35 PM 54.5 °F - 12.2 °F 19% 30.14 in 10.0 mi Calm Calm - N/A   Clear
2:55 PM 55.4 °F - 12.4 °F 18% 30.14 in 10.0 mi NW 3.5 mph - N/A   Clear
3:15 PM 56.1 °F - 12.0 °F 17% 30.13 in 10.0 mi Calm Calm - N/A   Clear
3:35 PM 56.8 °F - 12.4 °F 17% 30.12 in 10.0 mi Calm Calm - N/A   Clear
3:55 PM 58.3 °F - 15.6 °F 19% 30.12 in 10.0 mi Calm Calm - N/A   Clear
4:15 PM 58.1 °F - 14.9 °F 18% 30.12 in 10.0 mi Calm Calm - N/A   Clear
4:35 PM 59.2 °F - 15.1 °F 18% 30.12 in 10.0 mi Calm Calm - N/A   Clear
4:55 PM 58.5 °F - 15.1 °F 18% 30.12 in 10.0 mi Calm Calm - N/A   Clear
5:15 PM 59.2 °F - 16.2 °F 19% 30.12 in 10.0 mi Calm Calm - N/A   Clear
5:35 PM 57.4 °F - 16.7 °F 20% 30.12 in 10.0 mi Calm Calm - N/A   Clear
5:55 PM 54.7 °F - 17.8 °F 24% 30.12 in 10.0 mi Calm Calm - N/A   Clear
6:15 PM 49.1 °F - 19.4 °F 31% 30.12 in 10.0 mi North 3.5 mph - N/A   Clear
6:35 PM 44.1 °F - 22.5 °F 42% 30.12 in 10.0 mi Calm Calm - N/A   Clear
6:55 PM 41.2 °F - 23.2 °F 49% 30.13 in 10.0 mi Calm Calm - N/A   Clear
7:15 PM 38.8 °F - 23.2 °F 53% 30.13 in 10.0 mi Calm Calm - N/A   Clear
7:35 PM 36.9 °F - 22.3 °F 56% 30.14 in 10.0 mi Calm Calm - N/A   Clear
7:55 PM 36.0 °F - 22.1 °F 57% 30.14 in 10.0 mi Calm Calm - N/A   Clear
8:15 PM 33.1 °F - 21.2 °F 62% 30.15 in 10.0 mi Calm Calm - N/A   Clear
8:35 PM 33.4 °F - 22.3 °F 64% 30.14 in 10.0 mi Calm Calm - N/A   Clear
8:55 PM 31.6 °F - 21.7 °F 67% 30.15 in 10.0 mi Calm Calm - N/A   Clear
9:15 PM 32.0 °F - 21.6 °F 65% 30.15 in 10.0 mi Calm Calm - N/A   Clear
9:35 PM 29.5 °F - 22.1 °F 74% 30.15 in 10.0 mi Calm Calm - N/A   Clear
9:55 PM 29.7 °F - 22.5 °F 75% 30.16 in 10.0 mi Calm Calm - N/A   Clear
10:15 PM 29.8 °F - 23.4 °F 77% 30.16 in 10.0 mi Calm Calm - N/A   Clear
10:35 PM 29.8 °F - 22.8 °F 75% 30.16 in 10.0 mi Calm Calm - N/A   Clear
10:55 PM 27.7 °F - 22.6 °F 81% 30.15 in 10.0 mi Calm Calm - N/A   Clear
11:15 PM 28.8 °F - 22.6 °F 78% 30.15 in 10.0 mi Calm Calm - N/A   Clear
11:35 PM 28.0 °F - 21.9 °F 78% 30.15 in 10.0 mi Calm Calm - N/A   Clear
11:55 PM 27.3 °F - 21.7 °F 80% 30.14 in 10.0 mi Calm Calm - N/A   Clear